| time (UTC) | temp F | wind direction | speed knots | gust knots | rain 1hr in | rain 24hr in | rain mn in | humidity % | barometer mb |
| 20260502180515 | 62 | 315 | 2.6 | 8.7 | 0.00 | 0.10 | 0.10 | 40 | 1010.8 |
| 20260502170517 | 61 | 293 | 0.9 | 2.6 | 0.00 | 0.10 | 0.10 | 53 | 1011.5 |
| 20260502164017 | 58 | 225 | 2.6 | 6.1 | 0.00 | 0.10 | 0.10 | 57 | 1011.5 |
| 20260502163517 | 57 | 315 | 2.6 | 7.0 | 0.00 | 0.10 | 0.10 | 49 | 1011.6 |
| 20260502163017 | 56 | 293 | 2.6 | 7.0 | 0.00 | 0.10 | 0.10 | 56 | 1011.7 |
| 20260502162517 | 57 | 23 | 0.9 | 2.6 | 0.00 | 0.10 | 0.10 | 57 | 1011.8 |
| 20260502162017 | 58 | 23 | 0.9 | 2.6 | 0.00 | 0.10 | 0.10 | 64 | 1011.8 |
| 20260502161517 | 58 | 23 | 1.7 | 7.0 | 0.00 | 0.10 | 0.10 | 60 | 1011.9 |
| 20260502161017 | 59 | 293 | 4.3 | 9.6 | 0.00 | 0.10 | 0.10 | 56 | 1011.8 |
| 20260502160517 | 59 | 293 | 2.6 | 6.1 | 0.00 | 0.10 | 0.10 | 60 | 1011.9 |
| 20260502152017 | 57 | 315 | 2.6 | 7.0 | 0.00 | 0.10 | 0.10 | 68 | 1012.1 |
| 20260502151516 | 56 | 293 | 2.6 | 6.1 | 0.00 | 0.10 | 0.10 | 66 | 1012.1 |
| 20260502151017 | 55 | 270 | 2.6 | 7.0 | 0.00 | 0.10 | 0.10 | 70 | 1012.0 |
| 20260502150516 | 55 | 270 | 2.6 | 7.0 | 0.00 | 0.10 | 0.10 | 70 | 1012.2 |
| 20260502130516 | 48 | 270 | 1.7 | 3.5 | 0.00 | 0.10 | 0.10 | 90 | 1012.4 |
| 20260502123516 | 48 | 293 | 2.6 | 7.0 | 0.00 | 0.10 | 0.10 | 95 | 1012.0 |
| 20260502123016 | 48 | 293 | 2.6 | 7.0 | 0.00 | 0.10 | 0.10 | 95 | 1012.0 |
| 20260502122516 | 48 | 248 | 2.6 | 5.2 | 0.00 | 0.10 | 0.10 | 96 | 1012.0 |
| 20260502122016 | 48 | 248 | 2.6 | 6.1 | 0.00 | 0.10 | 0.10 | 96 | 1012.0 |
| 20260502121516 | 48 | 248 | 1.7 | 3.5 | 0.00 | 0.10 | 0.10 | 97 | 1011.9 |
| 20260502121016 | 48 | 225 | 0.9 | 2.6 | 0.00 | 0.10 | 0.10 | 97 | 1011.9 |
| 20260502120516 | 48 | 225 | 0.9 | 1.7 | 0.00 | 0.10 | 0.10 | 97 | 1011.9 |
| 20260502115516 | 47 | 0.0 | 1.7 | 0.00 | 0.10 | 0.10 | 97 | 1012.0 | |
| 20260502115016 | 47 | 0.0 | 2.6 | 0.00 | 0.10 | 0.10 | 96 | 1012.1 | |
| 20260502114516 | 47 | 225 | 0.9 | 1.7 | 0.00 | 0.10 | 0.10 | 96 | 1012.1 |
| 20260502114016 | 47 | 225 | 0.9 | 2.6 | 0.00 | 0.10 | 0.10 | 97 | 1012.2 |
| 20260502113516 | 47 | 225 | 0.9 | 2.6 | 0.00 | 0.10 | 0.10 | 97 | 1012.0 |
| 20260502113016 | 47 | 0.0 | 2.6 | 0.00 | 0.10 | 0.10 | 97 | 1012.0 | |
| 20260502112516 | 47 | 248 | 0.9 | 3.5 | 0.00 | 0.10 | 0.10 | 97 | 1012.1 |
| 20260502112016 | 47 | 0.0 | 1.7 | 0.00 | 0.10 | 0.10 | 97 | 1012.0 | |
| 20260502111516 | 46 | 0.0 | 0.0 | 0.00 | 0.10 | 0.10 | 96 | 1011.9 | |
| 20260502111017 | 46 | 0.0 | 0.0 | 0.00 | 0.10 | 0.10 | 96 | 1012.0 | |
| 20260502110516 | 46 | 0.0 | 0.0 | 0.00 | 0.10 | 0.10 | 96 | 1011.8 | |
| 20260502110016 | 46 | 0.0 | 0.0 | 0.00 | 0.10 | 0.10 | 96 | 1011.7 | |
| 20260502105516 | 45 | 0.0 | 0.0 | 0.00 | 0.10 | 0.10 | 96 | 1011.7 | |
| 20260502105016 | 45 | 0.0 | 0.0 | 0.00 | 0.10 | 0.10 | 96 | 1011.6 | |
| 20260502104516 | 45 | 0.0 | 0.0 | 0.00 | 0.10 | 0.10 | 96 | 1011.4 | |
| 20260502104016 | 45 | 0.0 | 0.0 | 0.00 | 0.10 | 0.10 | 96 | 1011.5 | |
| 20260502103516 | 45 | 0.0 | 0.0 | 0.00 | 0.10 | 0.10 | 96 | 1011.4 | |
| 20260502103016 | 45 | 0.0 | 0.0 | 0.00 | 0.10 | 0.10 | 95 | 1011.3 | |
| 20260502102516 | 45 | 0.0 | 0.0 | 0.00 | 0.10 | 0.10 | 95 | 1011.4 | |
| 20260502102016 | 45 | 0.0 | 0.0 | 0.00 | 0.10 | 0.10 | 95 | 1011.4 | |
| 20260502101516 | 45 | 0.0 | 0.0 | 0.00 | 0.10 | 0.10 | 95 | 1011.5 | |
| 20260502101016 | 45 | 0.0 | 0.0 | 0.00 | 0.10 | 0.10 | 95 | 1011.5 | |
| 20260502100516 | 46 | 0.0 | 0.0 | 0.00 | 0.10 | 0.10 | 95 | 1011.4 | |
| 20260502091516 | 46 | 0.0 | 0.0 | 0.05 | 0.10 | 0.10 | 95 | 1011.2 | |
| 20260502091016 | 46 | 0.0 | 0.0 | 0.06 | 0.10 | 0.10 | 95 | 1011.0 | |
| 20260502090516 | 47 | 0.0 | 0.0 | 0.07 | 0.10 | 0.10 | 95 | 1011.0 | |
| 20260502071515 | 47 | 0.0 | 0.0 | 0.01 | 0.02 | 0.02 | 93 | 1011.7 | |
| 20260502071016 | 47 | 0.0 | 0.0 | 0.02 | 0.02 | 0.02 | 93 | 1011.7 | |
| 20260502070516 | 47 | 0.0 | 0.9 | 0.02 | 0.02 | 0.02 | 93 | 1011.8 | |
| 20260502070017 | 47 | 0.0 | 0.0 | 0.02 | 0.02 | 0.02 | 93 | 1011.9 | |
| 20260502065515 | 48 | 0.0 | 0.0 | 0.02 | 0.02 | 0.02 | 92 | 1011.9 | |
| 20260502065016 | 48 | 0.0 | 0.0 | 0.02 | 0.02 | 0.02 | 92 | 1011.9 | |
| 20260502064516 | 48 | 0.0 | 0.0 | 0.02 | 0.02 | 0.02 | 92 | 1011.9 | |
| 20260502064016 | 48 | 0.0 | 0.0 | 0.02 | 0.02 | 0.02 | 92 | 1012.0 | |
| 20260502063516 | 48 | 0.0 | 0.0 | 0.02 | 0.02 | 0.02 | 91 | 1012.1 | |
| 20260502063016 | 48 | 0.0 | 2.6 | 0.02 | 0.02 | 0.02 | 91 | 1012.2 | |
| 20260502062516 | 48 | 0.0 | 1.7 | 0.02 | 0.02 | 0.02 | 91 | 1012.1 | |
| 20260502062015 | 48 | 0.0 | 0.0 | 0.02 | 0.02 | 0.02 | 91 | 1012.0 | |
| 20260502061515 | 48 | 248 | 0.9 | 3.5 | 0.01 | 0.01 | 0.01 | 90 | 1012.1 |
| 20260502061015 | 48 | 225 | 0.9 | 3.5 | 0.00 | 0.00 | 0.00 | 91 | 1012.4 |
| 20260502060516 | 49 | 203 | 0.9 | 2.6 | 0.00 | 0.00 | 0.00 | 91 | 1012.4 |
| 20260502060015 | 49 | 180 | 0.9 | 3.5 | 0.00 | 0.00 | 0.00 | 91 | 1012.3 |
| 20260502055516 | 49 | 180 | 0.9 | 2.6 | 0.00 | 0.00 | 0.00 | 91 | 1012.2 |
| 20260502055015 | 49 | 0.0 | 0.0 | 0.00 | 0.00 | 0.00 | 90 | 1011.9 | |
| 20260502054515 | 49 | 0.0 | 0.0 | 0.00 | 0.00 | 0.00 | 90 | 1011.9 | |
| 20260502054015 | 49 | 0.0 | 0.0 | 0.00 | 0.00 | 0.00 | 89 | 1011.8 | |
| 20260502053515 | 49 | 0.0 | 0.0 | 0.00 | 0.00 | 0.00 | 89 | 1011.8 | |
| 20260502053015 | 49 | 0.0 | 0.0 | 0.00 | 0.00 | 0.00 | 87 | 1011.8 | |
| 20260502052516 | 49 | 0.0 | 0.0 | 0.00 | 0.00 | 0.00 | 86 | 1012.0 | |
| 20260502052015 | 50 | 0.0 | 0.0 | 0.00 | 0.00 | 0.00 | 85 | 1012.0 | |
| 20260502051515 | 50 | 180 | 0.9 | 2.6 | 0.00 | 0.00 | 0.00 | 85 | 1012.1 |
| 20260502051016 | 50 | 180 | 1.7 | 4.3 | 0.00 | 0.00 | 0.00 | 85 | 1012.2 |
| 20260502050516 | 50 | 0.0 | 1.7 | 0.00 | 0.00 | 0.00 | 86 | 1012.0 | |
| 20260502050015 | 50 | 0.0 | 1.7 | 0.00 | 0.00 | 0.00 | 86 | 1011.8 | |
| 20260502045515 | 50 | 0.0 | 0.0 | 0.00 | 0.00 | 0.00 | 86 | 1011.9 | |
| 20260502045015 | 50 | 0.0 | 0.0 | 0.00 | 0.00 | 0.00 | 85 | 1011.8 | |
| 20260502044515 | 50 | 0.0 | 0.9 | 0.00 | 0.00 | 0.00 | 84 | 1011.6 | |
| 20260502044015 | 50 | 0.0 | 0.0 | 0.00 | 0.00 | 0.00 | 84 | 1011.6 | |
| 20260502043515 | 50 | 203 | 0.9 | 1.7 | 0.00 | 0.00 | 0.00 | 84 | 1011.7 |
| 20260502043015 | 50 | 0.0 | 0.0 | 0.00 | 0.00 | 0.00 | 83 | 1011.4 | |
| 20260502042515 | 50 | 203 | 0.9 | 1.7 | 0.00 | 0.00 | 0.00 | 83 | 1011.3 |
| 20260502042015 | 50 | 0.0 | 1.7 | 0.00 | 0.00 | 0.00 | 84 | 1011.6 | |
| 20260502041515 | 50 | 0.0 | 0.0 | 0.00 | 0.00 | 0.00 | 84 | 1011.8 | |
| 20260502041015 | 50 | 0.0 | 0.0 | 0.00 | 0.00 | 0.00 | 83 | 1011.5 | |
| 20260502040515 | 50 | 0.0 | 0.0 | 0.00 | 0.00 | 0.00 | 83 | 1011.7 | |
| 20260502040015 | 50 | 0.0 | 0.0 | 0.00 | 0.00 | 0.00 | 83 | 1011.6 | |
| 20260502035516 | 50 | 0.0 | 0.9 | 0.00 | 0.00 | 0.00 | 83 | 1011.6 | |
| 20260502035016 | 50 | 0.0 | 0.0 | 0.00 | 0.00 | 0.00 | 83 | 1011.7 | |
| 20260502034516 | 50 | 0.0 | 0.0 | 0.00 | 0.00 | 0.00 | 83 | 1011.7 | |
| 20260502034016 | 50 | 0.0 | 0.9 | 0.00 | 0.00 | 0.00 | 83 | 1011.6 | |
| 20260502033516 | 50 | 0.0 | 0.9 | 0.00 | 0.00 | 0.00 | 82 | 1011.6 | |
| 20260502033016 | 50 | 0.0 | 0.0 | 0.00 | 0.00 | 0.00 | 83 | 1011.6 | |
| 20260502032516 | 50 | 0.0 | 0.0 | 0.00 | 0.00 | 0.00 | 82 | 1011.7 | |
| 20260502032016 | 50 | 0.0 | 0.9 | 0.00 | 0.00 | 0.00 | 82 | 1011.7 | |
| 20260502031516 | 50 | 0.0 | 0.0 | 0.00 | 0.00 | 0.00 | 82 | 1011.6 | |
| 20260502031016 | 50 | 0.0 | 0.0 | 0.00 | 0.00 | 0.00 | 82 | 1011.5 | |
| 20260502030516 | 50 | 0.0 | 0.0 | 0.00 | 0.00 | 0.00 | 82 | 1011.6 | |
| 20260502030016 | 50 | 0.0 | 0.0 | 0.00 | 0.00 | 0.00 | 82 | 1011.6 | |
| 20260502025516 | 50 | 0.0 | 0.0 | 0.00 | 0.00 | 0.00 | 80 | 1011.8 | |
| 20260502025016 | 50 | 0.0 | 0.0 | 0.00 | 0.00 | 0.00 | 80 | 1011.8 | |
| 20260502024516 | 50 | 0.0 | 0.0 | 0.00 | 0.00 | 0.00 | 78 | 1011.8 | |
| 20260502024016 | 50 | 0.0 | 0.0 | 0.00 | 0.00 | 0.00 | 79 | 1011.8 | |
| 20260502023516 | 50 | 0.0 | 0.0 | 0.00 | 0.00 | 0.00 | 78 | 1011.7 | |
| 20260502023016 | 50 | 0.0 | 0.0 | 0.00 | 0.00 | 0.00 | 78 | 1011.7 | |
| 20260502022516 | 50 | 0.0 | 0.0 | 0.00 | 0.00 | 0.00 | 77 | 1011.6 | |
| 20260502022016 | 50 | 0.0 | 0.0 | 0.00 | 0.00 | 0.00 | 76 | 1011.5 | |
| 20260502021516 | 51 | 0.0 | 0.0 | 0.00 | 0.00 | 0.00 | 77 | 1011.5 | |
| 20260502021016 | 50 | 0.0 | 0.0 | 0.00 | 0.00 | 0.00 | 74 | 1011.6 | |
| 20260502020516 | 51 | 0.0 | 0.0 | 0.00 | 0.00 | 0.00 | 74 | 1011.6 | |
| 20260502020016 | 51 | 0.0 | 0.0 | 0.00 | 0.00 | 0.00 | 75 | 1011.5 | |
| 20260502015516 | 51 | 0.0 | 0.0 | 0.00 | 0.00 | 0.00 | 74 | 1011.4 | |
| 20260502015016 | 51 | 0.0 | 0.0 | 0.00 | 0.00 | 0.00 | 74 | 1011.4 | |
| 20260502014516 | 51 | 0.0 | 0.0 | 0.00 | 0.00 | 0.00 | 76 | 1011.4 | |
| 20260502014016 | 51 | 0.0 | 0.0 | 0.00 | 0.00 | 0.00 | 76 | 1011.3 | |
| 20260502013516 | 51 | 0.0 | 0.0 | 0.00 | 0.00 | 0.00 | 75 | 1011.2 | |
| 20260502013016 | 52 | 0.0 | 0.0 | 0.00 | 0.00 | 0.00 | 73 | 1011.3 | |
| 20260502012516 | 52 | 0.0 | 0.0 | 0.00 | 0.00 | 0.00 | 70 | 1011.3 | |
| 20260502012016 | 52 | 0.0 | 0.0 | 0.00 | 0.00 | 0.00 | 70 | 1011.4 | |
| 20260502011516 | 52 | 0.0 | 0.0 | 0.00 | 0.00 | 0.00 | 71 | 1011.4 | |
| 20260502011016 | 53 | 0.0 | 0.0 | 0.00 | 0.00 | 0.00 | 70 | 1011.3 | |
| 20260502010516 | 53 | 0.0 | 0.0 | 0.00 | 0.00 | 0.00 | 69 | 1011.3 | |
| 20260502010016 | 54 | 0.0 | 0.0 | 0.00 | 0.00 | 0.00 | 66 | 1011.2 | |
| 20260502005516 | 54 | 0.0 | 0.0 | 0.00 | 0.00 | 0.00 | 64 | 1011.3 | |
| 20260502005016 | 55 | 0.0 | 0.0 | 0.00 | 0.00 | 0.00 | 63 | 1011.4 | |
| 20260502004516 | 55 | 0.0 | 0.0 | 0.00 | 0.00 | 0.00 | 63 | 1011.4 | |
| 20260502004016 | 56 | 0.0 | 0.0 | 0.00 | 0.00 | 0.00 | 63 | 1011.4 | |
| 20260502003516 | 56 | 0.0 | 0.0 | 0.00 | 0.00 | 0.00 | 61 | 1011.2 | |
| 20260502003016 | 56 | 0.0 | 0.0 | 0.00 | 0.00 | 0.00 | 59 | 1011.2 | |
| 20260502002516 | 56 | 0.0 | 0.9 | 0.00 | 0.00 | 0.00 | 59 | 1011.1 | |
| 20260502002016 | 57 | 203 | 0.9 | 3.5 | 0.00 | 0.00 | 0.00 | 58 | 1011.0 |
| 20260502001516 | 57 | 203 | 0.9 | 5.2 | 0.00 | 0.00 | 0.00 | 57 | 1011.0 |
| 20260502001016 | 57 | 203 | 0.9 | 1.7 | 0.00 | 0.00 | 0.00 | 58 | 1010.9 |
| 20260502000516 | 57 | 180 | 1.7 | 3.5 | 0.00 | 0.00 | 0.00 | 56 | 1010.8 |
| 20260502000016 | 57 | 203 | 2.6 | 6.1 | 0.00 | 0.00 | 0.00 | 56 | 1010.8 |
| 20260501235516 | 58 | 225 | 1.7 | 3.5 | 0.00 | 0.00 | 0.00 | 56 | 1010.8 |
| 20260501235016 | 58 | 225 | 1.7 | 3.5 | 0.00 | 0.00 | 0.00 | 56 | 1010.9 |
| 20260501234516 | 58 | 248 | 1.7 | 4.3 | 0.00 | 0.00 | 0.00 | 55 | 1010.8 |
| 20260501234016 | 58 | 248 | 2.6 | 7.8 | 0.00 | 0.00 | 0.00 | 54 | 1010.7 |
| 20260501233516 | 58 | 203 | 1.7 | 5.2 | 0.00 | 0.00 | 0.00 | 53 | 1010.7 |
| 20260501233016 | 59 | 203 | 2.6 | 6.1 | 0.00 | 0.00 | 0.00 | 53 | 1010.6 |
| 20260501232516 | 59 | 248 | 1.7 | 4.3 | 0.00 | 0.00 | 0.00 | 53 | 1010.6 |
| 20260501232016 | 59 | 225 | 1.7 | 3.5 | 0.00 | 0.00 | 0.00 | 53 | 1010.5 |
| 20260501231516 | 59 | 225 | 1.7 | 6.1 | 0.00 | 0.00 | 0.00 | 52 | 1010.4 |
| 20260501231016 | 59 | 248 | 1.7 | 3.5 | 0.00 | 0.00 | 0.00 | 51 | 1010.4 |
| 20260501230516 | 59 | 270 | 1.7 | 7.0 | 0.00 | 0.00 | 0.00 | 51 | 1010.2 |
| 20260501230016 | 60 | 293 | 1.7 | 3.5 | 0.00 | 0.00 | 0.00 | 50 | 1010.1 |
| 20260501225516 | 60 | 248 | 2.6 | 5.2 | 0.00 | 0.00 | 0.00 | 49 | 1010.0 |
| 20260501225016 | 60 | 293 | 2.6 | 7.8 | 0.00 | 0.00 | 0.00 | 48 | 1010.0 |
| 20260501224516 | 60 | 270 | 2.6 | 7.0 | 0.00 | 0.00 | 0.00 | 48 | 1009.9 |
| 20260501224015 | 60 | 225 | 2.6 | 6.1 | 0.00 | 0.00 | 0.00 | 48 | 1009.8 |
| 20260501223516 | 61 | 0 | 2.6 | 5.2 | 0.00 | 0.00 | 0.00 | 46 | 1009.9 |
| 20260501223015 | 61 | 315 | 3.5 | 9.6 | 0.00 | 0.00 | 0.00 | 46 | 1009.8 |
| 20260501222515 | 61 | 270 | 2.6 | 8.7 | 0.00 | 0.00 | 0.00 | 45 | 1009.8 |
| 20260501222016 | 61 | 0.0 | 2.6 | 0.00 | 0.00 | 0.00 | 46 | 1009.8 | |
| 20260501221515 | 61 | 293 | 1.7 | 3.5 | 0.00 | 0.00 | 0.00 | 46 | 1009.8 |
| 20260501221016 | 62 | 225 | 0.9 | 1.7 | 0.00 | 0.00 | 0.00 | 45 | 1009.7 |
| 20260501220516 | 62 | 225 | 0.9 | 2.6 | 0.00 | 0.00 | 0.00 | 45 | 1009.8 |
| 20260501220016 | 62 | 225 | 0.9 | 2.6 | 0.00 | 0.00 | 0.00 | 45 | 1009.8 |
| 20260501215516 | 62 | 225 | 1.7 | 3.5 | 0.00 | 0.00 | 0.00 | 45 | 1009.7 |
| 20260501215016 | 62 | 270 | 0.9 | 2.6 | 0.00 | 0.00 | 0.00 | 44 | 1009.7 |
| 20260501214516 | 63 | 270 | 0.9 | 2.6 | 0.00 | 0.00 | 0.00 | 44 | 1009.7 |
| 20260501214015 | 63 | 270 | 0.9 | 2.6 | 0.00 | 0.00 | 0.00 | 43 | 1009.6 |
| 20260501213516 | 63 | 248 | 0.9 | 2.6 | 0.00 | 0.00 | 0.00 | 43 | 1009.5 |
| 20260501213015 | 63 | 293 | 1.7 | 3.5 | 0.00 | 0.00 | 0.00 | 44 | 1009.6 |
| 20260501212515 | 64 | 225 | 1.7 | 3.5 | 0.00 | 0.00 | 0.00 | 41 | 1009.5 |
| 20260501212015 | 64 | 225 | 1.7 | 3.5 | 0.00 | 0.00 | 0.00 | 42 | 1009.5 |
| 20260501211515 | 65 | 225 | 0.9 | 3.5 | 0.00 | 0.00 | 0.00 | 44 | 1009.5 |
| 20260501211015 | 65 | 203 | 2.6 | 6.1 | 0.00 | 0.00 | 0.00 | 39 | 1009.4 |
| 20260501210515 | 66 | 225 | 1.7 | 5.2 | 0.00 | 0.00 | 0.00 | 41 | 1009.4 |
| 20260501210015 | 67 | 225 | 2.6 | 7.0 | 0.00 | 0.00 | 0.00 | 38 | 1009.5 |
| 20260501205515 | 67 | 315 | 1.7 | 6.1 | 0.00 | 0.00 | 0.00 | 39 | 1009.5 |
| 20260501205015 | 66 | 315 | 1.7 | 3.5 | 0.00 | 0.00 | 0.00 | 40 | 1009.4 |
| 20260501204515 | 65 | 270 | 0.9 | 3.5 | 0.00 | 0.00 | 0.00 | 39 | 1009.4 |
| 20260501204015 | 65 | 270 | 0.9 | 2.6 | 0.00 | 0.00 | 0.00 | 40 | 1009.5 |
| 20260501203515 | 66 | 270 | 1.7 | 5.2 | 0.00 | 0.00 | 0.00 | 39 | 1009.5 |
| 20260501203015 | 67 | 225 | 1.7 | 3.5 | 0.00 | 0.00 | 0.00 | 40 | 1009.6 |
| 20260501202515 | 67 | 225 | 1.7 | 4.3 | 0.00 | 0.00 | 0.00 | 38 | 1009.5 |
| 20260501202015 | 67 | 203 | 2.6 | 6.1 | 0.00 | 0.00 | 0.00 | 41 | 1009.5 |
| 20260501201515 | 66 | 203 | 3.5 | 7.0 | 0.00 | 0.00 | 0.00 | 38 | 1009.6 |
| 20260501201015 | 66 | 45 | 1.7 | 3.5 | 0.00 | 0.00 | 0.00 | 38 | 1009.6 |
| 20260501200516 | 66 | 315 | 2.6 | 5.2 | 0.00 | 0.00 | 0.00 | 39 | 1009.7 |
| 20260501200015 | 65 | 315 | 1.7 | 6.1 | 0.00 | 0.00 | 0.00 | 43 | 1009.7 |
| 20260501195515 | 66 | 270 | 2.6 | 5.2 | 0.00 | 0.00 | 0.00 | 40 | 1009.7 |
| 20260501195015 | 66 | 270 | 2.6 | 5.2 | 0.00 | 0.00 | 0.00 | 39 | 1009.7 |
| 20260501194515 | 67 | 293 | 4.3 | 8.7 | 0.00 | 0.00 | 0.00 | 38 | 1009.8 |
| 20260501194015 | 67 | 315 | 2.6 | 7.0 | 0.00 | 0.00 | 0.00 | 37 | 1009.8 |
| 20260501193515 | 67 | 225 | 2.6 | 6.1 | 0.00 | 0.00 | 0.00 | 39 | 1009.9 |
| 20260501193015 | 67 | 248 | 2.6 | 6.1 | 0.00 | 0.00 | 0.00 | 40 | 1009.9 |
| 20260501192515 | 66 | 293 | 2.6 | 7.0 | 0.00 | 0.00 | 0.00 | 40 | 1009.8 |
| 20260501192015 | 66 | 248 | 1.7 | 4.3 | 0.00 | 0.00 | 0.00 | 42 | 1010.0 |
| 20260501191515 | 67 | 248 | 1.7 | 3.5 | 0.00 | 0.00 | 0.00 | 40 | 1010.0 |
| 20260501191015 | 67 | 225 | 3.5 | 6.1 | 0.00 | 0.00 | 0.00 | 38 | 1010.0 |
| 20260501190515 | 67 | 293 | 3.5 | 6.1 | 0.00 | 0.00 | 0.00 | 42 | 1010.2 |
| 20260501190015 | 67 | 248 | 3.5 | 7.8 | 0.00 | 0.00 | 0.00 | 42 | 1010.2 |
| 20260501185515 | 67 | 225 | 3.5 | 6.1 | 0.00 | 0.00 | 0.00 | 40 | 1010.2 |
| 20260501185015 | 66 | 225 | 3.5 | 7.0 | 0.00 | 0.00 | 0.00 | 39 | 1010.5 |
| 20260501184515 | 66 | 293 | 3.5 | 8.7 | 0.00 | 0.00 | 0.00 | 42 | 1010.6 |
| 20260501184015 | 66 | 225 | 3.5 | 8.7 | 0.00 | 0.00 | 0.00 | 41 | 1010.6 |
| 20260501183515 | 66 | 270 | 1.7 | 7.0 | 0.00 | 0.00 | 0.00 | 43 | 1010.6 |
| 20260501183015 | 66 | 225 | 3.5 | 8.7 | 0.00 | 0.00 | 0.00 | 40 | 1010.8 |
| 20260501182515 | 66 | 270 | 4.3 | 8.7 | 0.00 | 0.00 | 0.00 | 40 | 1010.7 |
| 20260501182015 | 66 | 270 | 3.5 | 6.1 | 0.00 | 0.00 | 0.00 | 42 | 1010.8 |
| 20260501181515 | 66 | 270 | 3.5 | 7.0 | 0.00 | 0.00 | 0.00 | 41 | 1010.8 |
| 20260501181015 | 66 | 225 | 3.5 | 7.0 | 0.00 | 0.00 | 0.00 | 39 | 1010.9 |